QPF
0.00 0.00 0.00 0.01 0.00 0.00 0.00 0.01 0.01 0.01 0.01 0.01 0.01 0.04 0.06 0.04 0.05 0.05 0.05 0.04 0.02 0.02 0.01 0.01 0.01 0.01 0.01 0.01 0.01 0.01 0.01 0.02 0.02 0.02 0.04 0.04 0.03 0.03 0.03 0.03 0.03 0.03 0.02 0.02
0.00 0.00 0.00 0.00 0.00 0.00 0.01 0.01 0.01 0.01 0.01 0.01 0.01 0.02 0.02 0.02 0.02 0.02 0.04 0.04 0.02 0.01 0.01 0.01 0.01 0.01 0.01 0.02 0.02 0.02 0.03 0.05 0.05 0.06 0.07 0.05 0.05 0.05 0.06 0.06 0.06 0.08 0.07 0.04
0.00 0.00 0.00 0.00 0.00 0.01 0.01 0.01 0.00 0.01 0.01 0.02 0.02 0.02 0.03 0.03 0.01 0.01 0.02 0.02 0.01 0.01 0.01 0.01 0.01 0.01 0.01 0.02 0.03 0.03 0.04 0.04 0.03 0.03 0.03 0.04 0.05 0.05 0.05 0.06 0.07 0.06 0.05 0.06
0.01 0.01 0.01 0.00 0.00 0.00 0.01 0.01 0.01 0.01 0.01 0.02 0.03 0.03 0.03 0.03 0.01 0.01 0.01 0.01 0.01 0.01 0.01 0.01 0.01 0.01 0.01 0.02 0.02 0.02 0.02 0.02 0.02 0.02 0.03 0.04 0.04 0.03 0.04 0.04 0.04 0.04 0.06 0.08
0.01 0.01 0.00 0.01 0.01 0.01 0.01 0.01 0.01 0.02 0.04 0.05 0.05 0.04 0.03 0.03 0.02 0.01 0.01 0.01 0.02 0.02 0.03 0.03 0.02 0.01 0.01 0.02 0.02 0.02 0.01 0.02 0.02 0.03 0.03 0.03 0.03 0.02 0.02 0.03 0.04 0.06 0.07 0.06
0.01 0.02 0.02 0.01 0.01 0.01 0.01 0.03 0.02 0.03 0.05 0.05 0.05 0.06 0.06 0.03 0.01 0.01 0.01 0.01 0.04 0.05 0.03 0.04 0.04 0.05 0.03 0.02 0.01 0.01 0.01 0.02 0.02 0.02 0.02 0.03 0.03 0.03 0.04 0.04 0.05 0.06 0.07 0.07
0.01 0.02 0.02 0.01 0.02 0.02 0.02 0.05 0.08 0.05 0.06 0.06 0.05 0.04 0.04 0.03 0.02 0.02 0.02 0.02 0.02 0.02 0.02 0.02 0.03 0.04 0.04 0.02 0.02 0.02 0.03 0.03 0.04 0.04 0.04 0.05 0.06 0.07 0.07 0.07 0.08 0.08 0.08 0.10
0.01 0.02 0.02 0.02 0.02 0.04 0.05 0.06 0.10 0.06 0.04 0.03 0.02 0.03 0.03 0.02 0.02 0.03 0.02 0.02 0.02 0.02 0.02 0.02 0.02 0.02 0.03 0.03 0.03 0.03 0.03 0.04 0.05 0.07 0.06 0.06 0.08 0.08 0.10 0.11 0.11 0.11 0.12 0.11
0.03 0.05 0.05 0.03 0.03 0.06 0.09 0.10 0.09 0.05 0.04 0.03 0.02 0.03 0.03 0.02 0.03 0.03 0.03 0.03 0.03 0.03 0.03 0.03 0.03 0.03 0.03 0.03 0.03 0.03 0.04 0.05 0.06 0.09 0.09 0.08 0.09 0.10 0.10 0.10 0.10 0.13 0.14 0.13
0.04 0.05 0.07 0.05 0.04 0.06 0.09 0.10 0.10 0.10 0.11 0.07 0.05 0.04 0.04 0.02 0.03 0.04 0.06 0.06 0.05 0.04 0.03 0.03 0.03 0.03 0.02 0.03 0.04 0.03 0.03 0.03 0.05 0.08 0.11 0.10 0.12 0.12 0.11 0.10 0.10 0.11 0.12 0.10
0.05 0.04 0.07 0.08 0.07 0.08 0.09 0.09 0.08 0.09 0.14 0.12 0.08 0.06 0.04 0.03 0.05 0.11 0.15 0.09 0.06 0.05 0.03 0.03 0.03 0.04 0.04 0.05 0.05 0.03 0.03 0.03 0.04 0.07 0.11 0.13 0.14 0.15 0.16 0.14 0.10 0.07 0.06 0.05
0.07 0.05 0.04 0.05 0.05 0.07 0.07 0.07 0.09 0.08 0.09 0.10 0.09 0.07 0.05 0.05 0.11 0.13 0.11 0.08 0.08 0.06 0.05 0.04 0.04 0.05 0.06 0.07 0.06 0.05 0.04 0.04 0.06 0.08 0.09 0.11 0.10 0.10 0.10 0.08 0.05 0.03 0.03 0.03
0.06 0.05 0.04 0.04 0.05 0.06 0.06 0.05 0.07 0.08 0.10 0.11 0.08 0.06 0.06 0.09 0.12 0.12 0.10 0.08 0.10 0.09 0.06 0.04 0.04 0.06 0.06 0.06 0.05 0.04 0.04 0.04 0.06 0.08 0.08 0.08 0.08 0.07 0.04 0.03 0.02 0.01 0.01 0.03
0.04 0.05 0.05 0.04 0.05 0.06 0.06 0.05 0.03 0.03 0.03 0.03 0.04 0.04 0.05 0.08 0.10 0.10 0.09 0.09 0.10 0.08 0.07 0.06 0.05 0.04 0.05 0.04 0.03 0.03 0.03 0.04 0.04 0.04 0.04 0.04 0.03 0.02 0.01 0.01 0.01 0.01 0.01 0.03
0.03 0.03 0.03 0.03 0.03 0.03 0.03 0.03 0.03 0.03 0.04 0.04 0.04 0.04 0.05 0.06 0.06 0.07 0.08 0.10 0.09 0.07 0.08 0.07 0.05 0.04 0.03 0.03 0.02 0.03 0.03 0.03 0.02 0.02 0.01 0.01 0.01 0.01 0.01 0.01 0.01 0.02 0.02 0.03
0.03 0.02 0.02 0.02 0.02 0.03 0.04 0.05 0.06 0.07 0.06 0.05 0.05 0.03 0.04 0.04 0.05 0.06 0.06 0.07 0.07 0.08 0.07 0.07 0.05 0.03 0.03 0.03 0.02 0.02 0.01 0.01 0.01 0.01 0.01 0.01 0.01 0.01 0.02 0.02 0.02 0.02 0.02 0.04
0.03 0.02 0.02 0.03 0.02 0.02 0.04 0.06 0.06 0.06 0.06 0.06 0.05 0.05 0.05 0.06 0.06 0.06 0.05 0.05 0.04 0.05 0.07 0.06 0.05 0.04 0.03 0.03 0.03 0.02 0.01 0.01 0.01 0.01 0.01 0.01 0.02 0.02 0.02 0.02 0.03 0.03 0.03 0.03
0.04 0.02 0.02 0.03 0.02 0.01 0.03 0.04 0.05 0.05 0.06 0.07 0.07 0.07 0.08 0.08 0.08 0.06 0.06 0.05 0.04 0.05 0.06 0.05 0.05 0.04 0.04 0.03 0.03 0.02 0.02 0.03 0.03 0.03 0.03 0.03 0.03 0.03 0.02 0.02 0.04 0.04 0.03 0.03
0.03 0.02 0.02 0.02 0.02 0.02 0.02 0.03 0.03 0.04 0.07 0.08 0.07 0.06 0.06 0.06 0.06 0.06 0.06 0.05 0.04 0.04 0.04 0.04 0.04 0.04 0.04 0.04 0.04 0.03 0.03 0.04 0.05 0.06 0.06 0.06 0.06 0.04 0.04 0.04 0.05 0.05 0.03 0.03
0.05 0.02 0.02 0.02 0.02 0.02 0.02 0.02 0.02 0.04 0.06 0.06 0.05 0.06 0.06 0.07 0.07 0.07 0.06 0.05 0.04 0.03 0.03 0.02 0.02 0.02 0.03 0.04 0.05 0.05 0.04 0.06 0.06 0.06 0.07 0.08 0.08 0.08 0.09 0.09 0.08 0.07 0.05 0.05
0.05 0.03 0.03 0.02 0.02 0.02 0.02 0.02 0.04 0.05 0.05 0.05 0.07 0.08 0.08 0.07 0.06 0.07 0.07 0.05 0.03 0.03 0.02 0.02 0.02 0.01 0.02 0.03 0.04 0.06 0.07 0.07 0.06 0.05 0.07 0.09 0.10 0.10 0.10 0.10 0.10 0.08 0.07 0.06
0.08 0.06 0.04 0.03 0.04 0.04 0.04 0.04 0.05 0.05 0.07 0.09 0.09 0.08 0.06 0.06 0.06 0.06 0.05 0.03 0.02 0.02 0.01 0.01 0.01 0.01 0.02 0.03 0.04 0.05 0.06 0.05 0.05 0.05 0.06 0.07 0.09 0.09 0.09 0.08 0.08 0.07 0.06 0.06
0.10 0.08 0.06 0.05 0.07 0.08 0.07 0.06 0.06 0.08 0.10 0.07 0.06 0.07 0.06 0.05 0.05 0.04 0.03 0.02 0.02 0.02 0.01 0.01 0.02 0.02 0.02 0.02 0.02 0.03 0.03 0.03 0.03 0.04 0.06 0.07 0.07 0.07 0.07 0.07 0.06 0.05 0.05 0.05
0.07 0.08 0.07 0.08 0.08 0.08 0.07 0.06 0.06 0.07 0.06 0.05 0.06 0.06 0.05 0.04 0.04 0.03 0.03 0.04 0.04 0.03 0.02 0.01 0.01 0.01 0.01 0.01 0.01 0.02 0.02 0.03 0.03 0.03 0.04 0.06 0.06 0.06 0.05 0.05 0.04 0.04 0.03 0.03
0.06 0.06 0.06 0.06 0.06 0.06 0.05 0.05 0.05 0.06 0.06 0.05 0.05 0.05 0.05 0.05 0.04 0.04 0.05 0.05 0.05 0.04 0.03 0.02 0.01 0.02 0.01 0.01 0.02 0.02 0.02 0.02 0.03 0.03 0.04 0.05 0.04 0.04 0.03 0.03 0.02 0.02 0.02 0.03
0.06 0.05 0.04 0.04 0.04 0.04 0.04 0.05 0.07 0.07 0.07 0.05 0.05 0.05 0.04 0.03 0.04 0.03 0.03 0.03 0.03 0.03 0.03 0.03 0.02 0.02 0.02 0.02 0.02 0.03 0.03 0.03 0.03 0.03 0.03 0.03 0.03 0.03 0.04 0.04 0.03 0.03 0.03 0.03
0.05 0.05 0.05 0.05 0.05 0.05 0.05 0.07 0.07 0.06 0.04 0.04 0.03 0.03 0.03 0.03 0.03 0.03 0.03 0.02 0.01 0.02 0.02 0.02 0.02 0.02 0.02 0.03 0.03 0.04 0.04 0.03 0.03 0.03 0.03 0.04 0.05 0.05 0.05 0.05 0.05 0.04 0.04 0.04
MSLP
1011.38 1010.99 1010.61 1010.25 1009.90 1009.55 1009.17 1008.74 1008.23 1007.63 1006.96 1006.22 1005.47 1004.73 1004.07 1003.50 1003.04 1002.69 1002.43 1002.24 1002.09 1001.95 1001.80 1001.64 1001.48 1001.34 1001.23 1001.19 1001.23 1001.37 1001.61 1001.94 1002.34 1002.81 1003.33 1003.89 1004.48 1005.07 1005.68 1006.28 1006.86 1007.41 1007.92 1008.36
1011.42 1010.99 1010.50 1009.99 1009.44 1008.88 1008.31 1007.72 1007.13 1006.52 1005.92 1005.34 1004.79 1004.29 1003.85 1003.47 1003.15 1002.88 1002.64 1002.41 1002.19 1001.95 1001.70 1001.45 1001.21 1001.00 1000.84 1000.74 1000.73 1000.81 1000.97 1001.21 1001.54 1001.94 1002.41 1002.94 1003.52 1004.15 1004.80 1005.46 1006.11 1006.71 1007.26 1007.72
1011.41 1010.94 1010.39 1009.76 1009.08 1008.37 1007.65 1006.94 1006.27 1005.65 1005.09 1004.60 1004.18 1003.82 1003.52 1003.26 1003.03 1002.80 1002.56 1002.30 1002.02 1001.72 1001.41 1001.11 1000.83 1000.60 1000.41 1000.29 1000.24 1000.26 1000.35 1000.52 1000.76 1001.08 1001.49 1001.98 1002.55 1003.19 1003.87 1004.58 1005.28 1005.93 1006.52 1007.01
1011.42 1010.92 1010.31 1009.61 1008.83 1008.01 1007.19 1006.40 1005.66 1005.00 1004.44 1003.98 1003.61 1003.31 1003.07 1002.86 1002.65 1002.42 1002.17 1001.88 1001.56 1001.23 1000.90 1000.58 1000.31 1000.08 999.91 999.79 999.72 999.71 999.75 999.84 1000.01 1000.26 1000.60 1001.04 1001.59 1002.22 1002.93 1003.67 1004.41 1005.11 1005.73 1006.25
1011.48 1010.93 1010.26 1009.50 1008.65 1007.76 1006.86 1005.99 1005.18 1004.47 1003.87 1003.39 1003.00 1002.70 1002.45 1002.22 1001.98 1001.73 1001.44 1001.12 1000.78 1000.43 1000.11 999.81 999.57 999.38 999.24 999.15 999.10 999.08 999.10 999.16 999.28 999.48 999.77 1000.17 1000.70 1001.33 1002.05 1002.81 1003.59 1004.32 1004.98 1005.53
1011.54 1010.91 1010.18 1009.35 1008.44 1007.48 1006.51 1005.56 1004.69 1003.91 1003.24 1002.69 1002.25 1001.89 1001.58 1001.29 1001.00 1000.69 1000.36 1000.01 999.66 999.32 999.01 998.76 998.57 998.45 998.37 998.34 998.34 998.36 998.40 998.46 998.58 998.76 999.04 999.44 999.96 1000.59 1001.32 1002.10 1002.90 1003.67 1004.36 1004.93
1011.53 1010.79 1009.97 1009.06 1008.08 1007.04 1006.00 1004.98 1004.02 1003.16 1002.41 1001.77 1001.24 1000.79 1000.41 1000.05 999.69 999.33 998.96 998.58 998.22 997.90 997.64 997.44 997.32 997.27 997.28 997.34 997.43 997.53 997.64 997.77 997.94 998.17 998.48 998.90 999.44 1000.09 1000.83 1001.63 1002.45 1003.24 1003.95 1004.55
1011.35 1010.50 1009.57 1008.56 1007.48 1006.36 1005.23 1004.13 1003.09 1002.13 1001.29 1000.56 999.93 999.40 998.94 998.51 998.10 997.70 997.30 996.92 996.57 996.28 996.06 995.93 995.89 995.93 996.05 996.23 996.44 996.66 996.90 997.15 997.42 997.75 998.14 998.63 999.21 999.89 1000.66 1001.47 1002.30 1003.09 1003.82 1004.44
1010.98 1010.00 1008.95 1007.83 1006.65 1005.43 1004.20 1003.00 1001.86 1000.82 999.88 999.07 998.37 997.77 997.25 996.78 996.34 995.93 995.53 995.17 994.86 994.61 994.45 994.40 994.44 994.59 994.83 995.14 995.49 995.87 996.27 996.68 997.11 997.57 998.08 998.66 999.31 1000.03 1000.82 1001.64 1002.46 1003.25 1003.98 1004.61
1010.44 1009.35 1008.18 1006.94 1005.65 1004.32 1002.99 1001.69 1000.45 999.32 998.31 997.42 996.67 996.04 995.49 995.02 994.60 994.22 993.87 993.56 993.31 993.13 993.04 993.07 993.21 993.46 993.82 994.26 994.77 995.32 995.89 996.47 997.07 997.68 998.32 999.00 999.72 1000.49 1001.29 1002.10 1002.91 1003.68 1004.39 1005.02
1009.83 1008.64 1007.37 1006.03 1004.63 1003.19 1001.75 1000.36 999.04 997.83 996.75 995.83 995.06 994.42 993.90 993.48 993.12 992.81 992.55 992.32 992.16 992.07 992.07 992.18 992.41 992.76 993.22 993.79 994.43 995.13 995.85 996.60 997.35 998.10 998.86 999.63 1000.41 1001.20 1001.99 1002.78 1003.55 1004.29 1004.96 1005.57
1009.27 1008.03 1006.69 1005.26 1003.77 1002.24 1000.72 999.24 997.85 996.58 995.47 994.54 993.78 993.18 992.73 992.38 992.13 991.93 991.79 991.68 991.63 991.64 991.74 991.93 992.23 992.66 993.20 993.85 994.59 995.39 996.23 997.09 997.95 998.81 999.64 1000.46 1001.26 1002.05 1002.82 1003.57 1004.28 1004.96 1005.59 1006.17
1008.89 1007.64 1006.27 1004.80 1003.25 1001.66 1000.07 998.54 997.11 995.81 994.70 993.77 993.06 992.52 992.16 991.93 991.79 991.74 991.73 991.76 991.82 991.94 992.12 992.38 992.74 993.21 993.79 994.47 995.25 996.10 996.99 997.90 998.81 999.70 1000.56 1001.39 1002.17 1002.93 1003.65 1004.33 1004.98 1005.60 1006.18 1006.72
1008.77 1007.55 1006.19 1004.72 1003.16 1001.55 999.95 998.40 996.96 995.67 994.57 993.69 993.03 992.58 992.32 992.20 992.20 992.27 992.40 992.55 992.73 992.93 993.18 993.48 993.87 994.34 994.91 995.57 996.33 997.15 998.02 998.92 999.81 1000.67 1001.50 1002.29 1003.03 1003.72 1004.37 1004.99 1005.57 1006.12 1006.65 1007.14
1008.90 1007.74 1006.45 1005.03 1003.51 1001.95 1000.38 998.86 997.46 996.21 995.17 994.34 993.75 993.38 993.21 993.19 993.30 993.48 993.71 993.96 994.22 994.48 994.77 995.08 995.45 995.88 996.39 996.99 997.67 998.41 999.20 1000.01 1000.83 1001.62 1002.38 1003.09 1003.76 1004.38 1004.96 1005.50 1006.01 1006.51 1006.98 1007.44
1009.20 1008.16 1006.97 1005.65 1004.24 1002.77 1001.30 999.87 998.55 997.38 996.41 995.66 995.14 994.84 994.73 994.79 994.96 995.21 995.50 995.80 996.09 996.37 996.65 996.94 997.25 997.61 998.04 998.53 999.09 999.71 1000.38 1001.08 1001.78 1002.47 1003.13 1003.76 1004.34 1004.88 1005.39 1005.87 1006.33 1006.78 1007.22 1007.64
1009.58 1008.67 1007.63 1006.46 1005.21 1003.89 1002.56 1001.28 1000.08 999.03 998.15 997.48 997.02 996.77 996.70 996.78 996.98 997.24 997.53 997.83 998.11 998.36 998.60 998.83 999.06 999.33 999.64 1000.01 1000.44 1000.93 1001.47 1002.04 1002.62 1003.20 1003.76 1004.30 1004.81 1005.29 1005.75 1006.18 1006.60 1007.01 1007.41 1007.81
1009.91 1009.15 1008.29 1007.31 1006.25 1005.13 1004.00 1002.89 1001.86 1000.94 1000.17 999.58 999.17 998.95 998.89 998.95 999.12 999.34 999.59 999.83 1000.05 1000.24 1000.41 1000.56 1000.70 1000.87 1001.08 1001.33 1001.64 1002.01 1002.43 1002.88 1003.36 1003.85 1004.33 1004.80 1005.26 1005.69 1006.10 1006.51 1006.90 1007.28 1007.65 1008.02
1010.10 1009.51 1008.83 1008.07 1007.22 1006.33 1005.41 1004.50 1003.65 1002.88 1002.23 1001.72 1001.36 1001.14 1001.05 1001.07 1001.17 1001.31 1001.48 1001.63 1001.77 1001.88 1001.96 1002.03 1002.09 1002.18 1002.30 1002.47 1002.69 1002.97 1003.30 1003.68 1004.08 1004.51 1004.94 1005.36 1005.78 1006.19 1006.58 1006.95 1007.32 1007.68 1008.02 1008.35
1010.15 1009.72 1009.22 1008.65 1008.03 1007.35 1006.65 1005.95 1005.28 1004.66 1004.13 1003.69 1003.36 1003.14 1003.02 1002.97 1002.99 1003.04 1003.10 1003.16 1003.20 1003.23 1003.24 1003.24 1003.26 1003.29 1003.36 1003.49 1003.67 1003.90 1004.19 1004.52 1004.89 1005.28 1005.68 1006.08 1006.48 1006.86 1007.23 1007.59 1007.93 1008.25 1008.55 1008.83
1010.10 1009.80 1009.45 1009.06 1008.63 1008.15 1007.65 1007.13 1006.62 1006.15 1005.72 1005.35 1005.05 1004.83 1004.67 1004.56 1004.50 1004.46 1004.44 1004.42 1004.39 1004.35 1004.32 1004.29 1004.28 1004.31 1004.37 1004.49 1004.67 1004.89 1005.18 1005.50 1005.85 1006.23 1006.62 1007.01 1007.39 1007.75 1008.09 1008.42 1008.72 1008.99 1009.24 1009.47
1010.01 1009.81 1009.58 1009.33 1009.04 1008.71 1008.37 1008.00 1007.63 1007.27 1006.93 1006.63 1006.36 1006.15 1005.97 1005.82 1005.71 1005.62 1005.54 1005.46 1005.40 1005.34 1005.30 1005.27 1005.28 1005.33 1005.42 1005.57 1005.77 1006.02 1006.32 1006.65 1007.01 1007.38 1007.75 1008.12 1008.48 1008.81 1009.12 1009.40 1009.64 1009.86 1010.05 1010.21
1009.96 1009.82 1009.66 1009.49 1009.30 1009.08 1008.84 1008.58 1008.31 1008.04 1007.78 1007.54 1007.31 1007.12 1006.95 1006.80 1006.67 1006.56 1006.47 1006.39 1006.32 1006.28 1006.26 1006.27 1006.32 1006.42 1006.56 1006.76 1007.00 1007.28 1007.60 1007.94 1008.29 1008.65 1009.01 1009.34 1009.66 1009.95 1010.20 1010.43 1010.62 1010.77 1010.90 1010.99
1009.99 1009.87 1009.75 1009.61 1009.46 1009.29 1009.11 1008.91 1008.71 1008.51 1008.32 1008.13 1007.96 1007.81 1007.67 1007.55 1007.45 1007.37 1007.30 1007.25 1007.23 1007.23 1007.26 1007.33 1007.43 1007.59 1007.78 1008.02 1008.29 1008.60 1008.92 1009.26 1009.60 1009.93 1010.24 1010.54 1010.80 1011.03 1011.23 1011.39 1011.52 1011.62 1011.68 1011.73
1010.10 1009.98 1009.85 1009.71 1009.55 1009.40 1009.23 1009.07 1008.91 1008.76 1008.62 1008.50 1008.39 1008.30 1008.23 1008.17 1008.13 1008.10 1008.09 1008.10 1008.13 1008.19 1008.28 1008.40 1008.56 1008.76 1008.99 1009.25 1009.53 1009.84 1010.15 1010.46 1010.76 1011.05 1011.31 1011.54 1011.74 1011.91 1012.05 1012.16 1012.24 1012.29 1012.33 1012.34
1010.24 1010.09 1009.93 1009.77 1009.59 1009.42 1009.26 1009.11 1008.98 1008.87 1008.78 1008.72 1008.69 1008.67 1008.68 1008.70 1008.74 1008.78 1008.84 1008.92 1009.01 1009.12 1009.25 1009.41 1009.60 1009.81 1010.05 1010.30 1010.57 1010.85 1011.12 1011.38 1011.63 1011.85 1012.05 1012.22 1012.37 1012.48 1012.57 1012.64 1012.69 1012.73 1012.75 1012.76
1010.31 1010.15 1009.96 1009.77 1009.57 1009.38 1009.22 1009.08 1008.97 1008.90 1008.87 1008.88 1008.92 1008.99 1009.08 1009.18 1009.29 1009.41 1009.53 1009.66 1009.79 1009.94 1010.09 1010.25 1010.43 1010.62 1010.83 1011.05 1011.27 1011.49 1011.70 1011.90 1012.08 1012.24 1012.38 1012.50 1012.60 1012.68 1012.74 1012.80 1012.85 1012.89 1012.93 1012.97
Thickness
5743 5755 5761 5761 5764 5767 5760 5752 5745 5755 5764 5777 5788 5792 5795 5798 5798 5798 5797 5797 5798 5797 5797 5796 5794 5792 5790 5788 5786 5782 5777 5772 5769 5766 5763 5759 5756 5753 5751 5748 5745 5742 5739 5737
5734 5749 5751 5752 5761 5764 5763 5765 5761 5762 5764 5783 5788 5790 5788 5790 5791 5790 5789 5790 5792 5792 5792 5790 5789 5787 5784 5782 5780 5777 5772 5768 5765 5761 5757 5753 5750 5748 5744 5741 5739 5736 5734 5732
5707 5728 5733 5728 5751 5757 5759 5765 5762 5754 5764 5776 5776 5779 5780 5783 5786 5785 5784 5785 5785 5786 5785 5785 5784 5783 5779 5777 5775 5771 5767 5763 5759 5755 5751 5749 5746 5742 5739 5736 5733 5730 5728 5726
5694 5706 5697 5727 5756 5761 5755 5755 5762 5762 5767 5772 5772 5772 5775 5779 5779 5778 5779 5778 5777 5777 5778 5778 5777 5776 5774 5771 5767 5763 5759 5756 5753 5750 5746 5743 5739 5736 5733 5730 5727 5724 5721 5719
5680 5682 5695 5724 5745 5750 5742 5737 5753 5755 5758 5761 5765 5762 5760 5770 5773 5773 5773 5772 5772 5772 5772 5771 5770 5768 5765 5762 5759 5755 5752 5749 5747 5744 5740 5736 5732 5729 5727 5723 5720 5717 5714 5712
5675 5675 5679 5709 5739 5751 5740 5720 5744 5749 5748 5749 5750 5736 5742 5759 5763 5764 5766 5766 5766 5765 5764 5762 5762 5760 5755 5752 5749 5746 5745 5743 5741 5738 5733 5729 5726 5723 5720 5717 5713 5710 5707 5705
5669 5668 5682 5713 5733 5739 5709 5709 5733 5740 5742 5742 5737 5738 5745 5751 5753 5755 5756 5757 5758 5756 5754 5753 5752 5749 5744 5742 5740 5740 5737 5734 5732 5729 5725 5722 5718 5715 5712 5708 5704 5701 5699 5696
5660 5659 5673 5711 5717 5709 5706 5719 5725 5729 5733 5733 5735 5737 5739 5742 5743 5744 5745 5746 5747 5744 5743 5742 5741 5738 5735 5732 5733 5732 5729 5725 5722 5720 5717 5714 5709 5706 5702 5698 5694 5691 5688 5686
5662 5668 5689 5702 5704 5707 5710 5710 5714 5718 5722 5724 5725 5727 5729 5730 5731 5732 5734 5735 5735 5734 5732 5731 5730 5729 5726 5725 5724 5722 5719 5716 5713 5709 5706 5703 5699 5695 5691 5687 5684 5681 5678 5675
5661 5673 5685 5692 5698 5701 5704 5705 5708 5711 5713 5716 5715 5717 5717 5718 5719 5720 5722 5723 5723 5722 5720 5719 5719 5719 5717 5716 5715 5713 5709 5706 5703 5699 5696 5692 5689 5686 5682 5678 5674 5671 5668 5666
5652 5666 5673 5681 5686 5691 5695 5698 5700 5702 5704 5706 5706 5705 5706 5706 5708 5709 5710 5711 5712 5710 5709 5709 5709 5708 5708 5707 5705 5702 5699 5696 5693 5690 5685 5682 5679 5676 5674 5671 5669 5665 5662 5659
5645 5659 5660 5666 5678 5683 5683 5685 5688 5689 5689 5693 5695 5694 5694 5694 5697 5698 5698 5699 5700 5700 5699 5698 5697 5697 5696 5696 5695 5692 5687 5685 5682 5678 5675 5671 5668 5664 5664 5662 5660 5658 5656 5652
5653 5660 5661 5666 5672 5675 5675 5677 5679 5680 5681 5681 5683 5684 5684 5683 5686 5687 5687 5688 5689 5689 5689 5689 5687 5686 5686 5685 5684 5681 5678 5675 5672 5669 5666 5662 5658 5654 5651 5649 5649 5648 5647 5644
5653 5654 5654 5658 5661 5665 5666 5669 5671 5672 5672 5673 5674 5676 5676 5675 5676 5676 5677 5678 5680 5679 5678 5677 5677 5676 5676 5675 5673 5671 5668 5666 5663 5659 5656 5653 5649 5646 5644 5641 5638 5636 5635 5634
5649 5649 5650 5653 5654 5656 5657 5658 5658 5659 5661 5662 5664 5665 5666 5665 5665 5665 5667 5669 5669 5668 5667 5666 5666 5666 5666 5665 5663 5661 5658 5655 5653 5649 5646 5644 5641 5638 5636 5633 5630 5627 5625 5623
5644 5645 5646 5645 5645 5646 5647 5648 5647 5649 5651 5652 5653 5655 5656 5656 5656 5656 5657 5658 5658 5657 5657 5657 5657 5657 5657 5656 5653 5651 5648 5647 5644 5640 5637 5634 5632 5629 5626 5623 5620 5618 5616 5613
5636 5635 5636 5636 5638 5639 5639 5640 5641 5642 5643 5644 5645 5647 5647 5647 5646 5646 5647 5648 5649 5649 5650 5650 5649 5649 5648 5647 5644 5641 5639 5636 5635 5631 5628 5625 5623 5620 5617 5615 5612 5610 5607 5606
5636 5636 5636 5635 5634 5634 5634 5635 5636 5636 5637 5638 5639 5639 5638 5638 5637 5637 5638 5639 5640 5640 5641 5642 5642 5641 5640 5638 5636 5633 5630 5627 5625 5622 5620 5617 5614 5612 5610 5607 5605 5603 5600 5598
5632 5632 5632 5633 5632 5631 5630 5630 5630 5631 5632 5633 5632 5632 5632 5632 5632 5631 5631 5631 5631 5630 5631 5634 5634 5633 5631 5630 5628 5625 5623 5620 5617 5614 5612 5610 5607 5605 5603 5601 5598 5596 5594 5591
5627 5628 5628 5627 5628 5627 5626 5626 5626 5626 5627 5627 5626 5625 5624 5625 5626 5625 5624 5623 5624 5625 5626 5626 5626 5624 5623 5622 5622 5619 5615 5612 5609 5606 5604 5602 5600 5598 5596 5595 5592 5590 5587 5584
5624 5624 5623 5623 5623 5624 5623 5622 5621 5620 5621 5621 5620 5619 5620 5620 5620 5618 5616 5615 5618 5620 5620 5620 5618 5617 5616 5615 5614 5611 5608 5604 5602 5599 5596 5594 5591 5590 5588 5586 5585 5583 5581 5578
5621 5621 5621 5620 5619 5618 5618 5619 5618 5618 5617 5617 5617 5616 5615 5613 5612 5611 5611 5611 5613 5615 5614 5613 5612 5611 5610 5609 5606 5604 5602 5599 5595 5592 5589 5587 5585 5582 5581 5579 5577 5575 5573 5570
5617 5618 5617 5616 5616 5615 5615 5614 5615 5614 5614 5613 5611 5610 5609 5608 5607 5606 5604 5607 5608 5609 5608 5606 5606 5605 5603 5601 5599 5598 5595 5592 5589 5586 5584 5582 5579 5577 5574 5572 5570 5568 5565 5562
5611 5612 5611 5611 5612 5611 5609 5609 5610 5609 5609 5609 5608 5607 5605 5603 5601 5602 5603 5604 5604 5603 5601 5599 5599 5598 5596 5594 5592 5590 5588 5585 5582 5580 5577 5575 5573 5570 5567 5565 5562 5559 5557 5554
5607 5607 5607 5606 5605 5605 5605 5605 5604 5604 5603 5602 5602 5602 5601 5600 5598 5598 5598 5598 5597 5596 5594 5593 5593 5591 5589 5587 5585 5582 5580 5578 5576 5573 5570 5567 5564 5561 5559 5556 5553 5550 5547 5545
5603 5603 5603 5603 5602 5602 5602 5601 5600 5599 5598 5596 5596 5597 5597 5596 5596 5594 5592 5592 5591 5589 5587 5586 5585 5584 5582 5580 5577 5576 5574 5571 5569 5567 5564 5561 5557 5554 5551 5547 5544 5541 5538 5536
5599 5599 5598 5598 5598 5599 5599 5598 5597 5596 5596 5594 5593 5593 5593 5592 5591 5589 5587 5586 5584 5583 5581 5579 5577 5576 5574 5572 5571 5569 5567 5565 5562 5560 5557 5553 5550 5547 5543 5540 5537 5534 5531 5528